STARLINK-32544, 61917

Orbit data source: Space-Track

STARLINK-32544, 61917 is a payload satellite owned by SpaceX/Seattle (US) in LEO that was launched on Mon, 11 Nov 2024 UTC via an FALCON 9 launch vehicle from the Air Force Eastern Test Range (AFETR). Payload-class satellites include a variety of spacecraft equipped with specific instruments for various scientific and technological missions. These include communications satellites like Starlink; space stations such as the ISS; scientific satellites like the Hubble; Earth observation satellites from companies like Planet Labs, Umbra, and HawkEye 360; GPS; miniature CubeSats for education and research; and military/defense satellites.

Loading next visibility...
Identifier
61917, 2024-207F
Orbit
LEO
Country
Flag of USUS
Related business
Manufacturer
SpaceX/Seattle
Mission
Operational Commercial Communications
Bus & Motor
STARLINK V2M, Unknown motor
Mass
730 kg wet, ~700 kg dry
Launch date (UTC)
2024-11-11 (2 years ago)
Launch vehicle
FALCON 9
Launch site
Air Force Eastern Test Range (AFETR)
Object type
Payload
Rocket body
Debris
Shape & HBR
Box + 2 Pan, 17.7 m
Radar Cross Section
33.884 m², Large (>1 m²)

Expand to show TLE details & history
Last TLE update: 15 hours ago

TLE from 15 hours ago
0 STARLINK-32544
1 61917U 24207F   26263.01837868  .00011416  00000-0  42364-3 0  9994
2 61917  43.0007 264.1484 0001502 280.0249  80.0433 15.27586339104442
Epoch: 2026-09-20T00:26Z
TLE epoch observation values (Epoch: 2026-09-20T00:26:27.917Z)
Latitude
-0.00005°
Longitude
-101.38656°
Altitude
482.628 km
Speed
7.626 km/s
True Right ascension
17h 36m 35s
True Declination
0° 00' 00"
Sunlit
Object was in daylight at epoch
Visualization orbit readout
Latitude
Unknown
Longitude
Unknown
Altitude
Unknown
Speed
Unknown
Apparent Right ascension
Unknown
Apparent Declination
Unknown
Sunlit
N/A
Visualization observer readout
Local Sidereal Time
08:30:17
Azimuth
Unknown
Elevation
Unknown
Doppler factor
Unknown
Orbital elements
Apogee altitude
486.006 km
Perigee altitude
483.944 km
Semi-major axis
6,863.112 km
Eccentricity
0.00015
Inclination
43.0007°
RAAN
264.1484°
Arg. of periapsis
280.0249°
True anomaly
80.06025°
Mean anomaly
80.0433°
Eccentric anomaly
80.05178°
Mean motion
3.81735 °/min
Orbital period
94.31 mins
BSTAR
0.00042364
Loading maneuver chart data...
Computing Atmospheric mass density...
Loading historical data...
Loading historical data...
Loading historical data...
Loading historical data...
Loading historical data...
Loading historical data...
Loading historical data...

Documentation

Showing up to 5 results
|